Weather in Dzhalinda

Russia / Amur Oblast     53°29′17″N   123°53′45″E
temp.,
°C
wind,
m/s
gust,
m/s
humid.,
%
clouds,
%
prec.,
mm/h
press.,
hPa
HPBL,
m
29 july, thu
thu2900:00+14w11988 0.0 100113
03:00+14w119815 0.0 100115
06:00+14w119813 0.0 100129
09:00+20w257118 0.0 1001664
12:00+24w3451100 0.0 10001534
15:00+24wnw4452100 0.0 9981401
18:00+25wnw2452100 0.0 9981532
21:00+18nnw1185100 0.1 99911
30 july, fri
fri3000:00+15nnw1195100 0.4 100011
03:00+14nw11985 0.6 100021
06:00+14wnw119969 0.8 100149
09:00+16nw1397100 1.6 1002274
12:00+21wnw136328 0.0 1002994
15:00+21nne475295 0.2 1002795
18:00+22nne464812 0.0 10031464
21:00+15n22761 0.0 100412
31 july, sat
sat3100:00+12ne11962 0.0 100615
03:00+10nw11972 0.0 100712
06:00+12nnw1289100 0.0 100796
09:00+15nne137599 0.0 1008633
12:00+18ene355694 0.0 10081461
15:00+17nne367086 0.1 1008459
18:00+17nne237986 0.5 1008165
21:00+12e238927 0.7 100959
1 august, sun
sun100:00+10ne119538 0.0 101011
03:00+9n119722 0.0 101017
06:00+9nw129683 0.0 101059
09:00+12nw2390100 0.0 1009260
12:00+17nnw355797 0.1 10081498
15:00+16ne246296 0.1 1008882
18:00+16ne236198 0.0 1008683
21:00+13n117678 0.0 100814
2 august, mon
mon200:00+9wsw009312 0.0 100910
03:00+8wsw11965 0.0 100910
06:00+9sw119480 0.0 100924
09:00+16w236317 0.0 1008638
12:00+20w344417 0.0 10081653
15:00+22w2342100 0.0 10072096
18:00+22n01440 0.0 10081226
21:00+15e22682 0.0 100915